AAL22 KPGA-KLAX

Flight info

Callsign AAL22
Flight time 1h 8m
Altitude 36000
Route EEEZY HAKMN ANJLL4
Aircraft B738/M-SDE2E3FGHIRWXY/LB1

Departure

Time 2026-05-07 22:14
Airport Page Municipal Airport (KPGA)

Arrival

Time 2026-05-07 23:23
Airport Los Angeles International Airport (KLAX)
Time Latitude Longitude Altitude Speed Heading
2026-05-07 21:54 36.92192 -111.44864 4265 ft 0 kts 261°
2026-05-07 22:07 36.92196 -111.44847 4269 ft 2 kts 229°
2026-05-07 22:07 36.92210 -111.44837 4260 ft 2 kts 179°
2026-05-07 22:10 36.92204 -111.44837 4261 ft 3 kts 179°
2026-05-07 22:10 36.92164 -111.44828 4264 ft 8 kts 163°
2026-05-07 22:10 36.92107 -111.44806 4266 ft 9 kts 171°
2026-05-07 22:11 36.92049 -111.44794 4266 ft 8 kts 171°
2026-05-07 22:11 36.91991 -111.44781 4266 ft 9 kts 170°
2026-05-07 22:11 36.91922 -111.44765 4266 ft 12 kts 169°
2026-05-07 22:11 36.91838 -111.44746 4261 ft 12 kts 169°
2026-05-07 22:12 36.91754 -111.44729 4266 ft 12 kts 171°
2026-05-07 22:12 36.91685 -111.44708 4263 ft 5 kts 144°
2026-05-07 22:12 36.91683 -111.44706 4263 ft 0 kts 139°
2026-05-07 22:12 36.91682 -111.44704 4263 ft 1 kts 137°
2026-05-07 22:13 36.91671 -111.44660 4264 ft 10 kts 94°
2026-05-07 22:13 36.91690 -111.44626 4265 ft 4 kts 22°
2026-05-07 22:13 36.91705 -111.44623 4265 ft 0 kts
2026-05-07 22:13 36.91709 -111.44622 4263 ft 10 kts
2026-05-07 22:14 36.92063 -111.44694 4266 ft 91 kts 350°
2026-05-07 22:14 36.92917 -111.44877 4265 ft 159 kts 350°
2026-05-07 22:14 36.94159 -111.45168 4644 ft 196 kts 350°
2026-05-07 22:14 36.95529 -111.45547 5508 ft 205 kts 346°
2026-05-07 22:15 36.96931 -111.46011 6237 ft 217 kts 337°
2026-05-07 22:15 36.98099 -111.47303 6444 ft 239 kts 296°
2026-05-07 22:15 36.98345 -111.49352 6935 ft 245 kts 257°
2026-05-07 22:15 36.97544 -111.51192 7477 ft 248 kts 223°
2026-05-07 22:16 36.96033 -111.52159 7650 ft 249 kts 187°
2026-05-07 22:16 36.94325 -111.51831 7666 ft 252 kts 151°
2026-05-07 22:16 36.93054 -111.50362 7699 ft 252 kts 126°
2026-05-07 22:16 36.92213 -111.48439 8087 ft 256 kts 101°
2026-05-07 22:17 36.92142 -111.46239 8968 ft 253 kts 87°
2026-05-07 22:17 36.92293 -111.44065 9810 ft 255 kts 84°
2026-05-07 22:17 36.92717 -111.41925 10504 ft 256 kts 55°
2026-05-07 22:17 36.93977 -111.40411 11286 ft 252 kts 35°
2026-05-07 22:18 36.95117 -111.38736 11688 ft 259 kts 67°
2026-05-07 22:18 36.95125 -111.34796 12083 ft 297 kts 88°
2026-05-07 22:18 36.95635 -111.32240 12264 ft 315 kts 56°
2026-05-07 22:19 36.97875 -111.29876 12711 ft 329 kts 17°
2026-05-07 22:19 36.99398 -111.29527 13179 ft 331 kts 358°
2026-05-07 22:19 37.01591 -111.30190 13990 ft 331 kts 332°
2026-05-07 22:19 37.03308 -111.32088 14743 ft 336 kts 306°
2026-05-07 22:20 37.04194 -111.34819 15429 ft 345 kts 286°
2026-05-07 22:20 37.04946 -111.37670 16121 ft 347 kts 295°
2026-05-07 22:20 37.05772 -111.40542 16750 ft 354 kts 285°
2026-05-07 22:20 37.05975 -111.43638 17453 ft 363 kts 266°
2026-05-07 22:21 37.05163 -111.46667 18106 ft 375 kts 240°
2026-05-07 22:21 37.03549 -111.49274 18746 ft 381 kts 235°
2026-05-07 22:21 37.02227 -111.52144 19271 ft 382 kts 250°
2026-05-07 22:21 37.01245 -111.55235 19859 ft 384 kts 252°
2026-05-07 22:22 37.00288 -111.58378 20353 ft 388 kts 252°
2026-05-07 22:22 36.99325 -111.61503 20930 ft 391 kts 252°
2026-05-07 22:22 36.98319 -111.64686 21482 ft 395 kts 251°
2026-05-07 22:22 36.97280 -111.67900 22020 ft 400 kts 251°
2026-05-07 22:23 36.96218 -111.71131 22553 ft 404 kts 251°
2026-05-07 22:23 36.95138 -111.74394 23033 ft 407 kts 251°
2026-05-07 22:23 36.94043 -111.77681 23578 ft 411 kts 250°
2026-05-07 22:23 36.92933 -111.80993 24015 ft 414 kts 250°
2026-05-07 22:24 36.91812 -111.84331 24464 ft 418 kts 250°
2026-05-07 22:24 36.90683 -111.87688 24925 ft 420 kts 250°
2026-05-07 22:24 36.89562 -111.91022 25372 ft 423 kts 250°
2026-05-07 22:24 36.88417 -111.94425 25817 ft 426 kts 250°
2026-05-07 22:25 36.87264 -111.97850 26231 ft 429 kts 250°
2026-05-07 22:25 36.86102 -112.01300 26646 ft 432 kts 250°
2026-05-07 22:25 36.84928 -112.04778 27046 ft 435 kts 250°
2026-05-07 22:25 36.83749 -112.08268 27462 ft 438 kts 250°
2026-05-07 22:26 36.82560 -112.11784 27862 ft 440 kts 250°
2026-05-07 22:26 36.81378 -112.15275 28216 ft 444 kts 250°
2026-05-07 22:26 36.80173 -112.18833 28596 ft 447 kts 250°
2026-05-07 22:26 36.78957 -112.22416 28974 ft 450 kts 250°
2026-05-07 22:27 36.77731 -112.26024 29323 ft 453 kts 250°
2026-05-07 22:27 36.76498 -112.29649 29694 ft 455 kts 250°
2026-05-07 22:27 36.75257 -112.33293 30043 ft 458 kts 250°
2026-05-07 22:27 36.73986 -112.36947 30335 ft 461 kts 248°
2026-05-07 22:28 36.72535 -112.40538 30650 ft 464 kts 245°
2026-05-07 22:28 36.70988 -112.44076 31044 ft 463 kts 244°
2026-05-07 22:28 36.69416 -112.47566 31531 ft 460 kts 243°
2026-05-07 22:28 36.67858 -112.51009 31804 ft 462 kts 243°
2026-05-07 22:29 36.66277 -112.54529 32057 ft 465 kts 244°
2026-05-07 22:29 36.64705 -112.58054 32505 ft 462 kts 244°
2026-05-07 22:29 36.63159 -112.61553 33038 ft 458 kts 244°
2026-05-07 22:29 36.61653 -112.64986 33436 ft 458 kts 244°
2026-05-07 22:30 36.60119 -112.68466 33733 ft 459 kts 244°
2026-05-07 22:30 36.58583 -112.71949 34047 ft 459 kts 244°
2026-05-07 22:30 36.57047 -112.75429 34366 ft 458 kts 244°
2026-05-07 22:30 36.55516 -112.78896 34678 ft 457 kts 244°
2026-05-07 22:31 36.53983 -112.82365 34960 ft 457 kts 244°
2026-05-07 22:31 36.52448 -112.85835 35251 ft 457 kts 244°
2026-05-07 22:31 36.50918 -112.89292 35558 ft 455 kts 244°
2026-05-07 22:31 36.49383 -112.92755 35840 ft 455 kts 244°
2026-05-07 22:32 36.47874 -112.96157 35972 ft 458 kts 244°
2026-05-07 22:32 36.44769 -113.03147 35959 ft 461 kts 244°
2026-05-07 22:33 36.41681 -113.10079 35950 ft 454 kts 244°
2026-05-07 22:33 36.38640 -113.16890 35959 ft 454 kts 244°
2026-05-07 22:34 36.35550 -113.23806 35949 ft 456 kts 244°
2026-05-07 22:34 36.32483 -113.30651 35952 ft 457 kts 244°
2026-05-07 22:35 36.29389 -113.37541 35950 ft 458 kts 244°
2026-05-07 22:35 36.26279 -113.44454 35935 ft 459 kts 243°
2026-05-07 22:36 36.23159 -113.51372 35942 ft 460 kts 243°
2026-05-07 22:36 36.20032 -113.58292 35946 ft 460 kts 243°
2026-05-07 22:37 36.16922 -113.65162 35929 ft 460 kts 243°
2026-05-07 22:37 36.13786 -113.72073 35932 ft 460 kts 243°
2026-05-07 22:38 36.10651 -113.78969 35908 ft 459 kts 243°
2026-05-07 22:38 36.07519 -113.85842 35922 ft 458 kts 243°
2026-05-07 22:39 36.04382 -113.92713 35909 ft 458 kts 243°
2026-05-07 22:39 36.01269 -113.99525 35909 ft 458 kts 243°
2026-05-07 22:40 35.98134 -114.06364 35907 ft 457 kts 243°
2026-05-07 22:40 35.94992 -114.13205 35897 ft 457 kts 243°
2026-05-07 22:41 35.91855 -114.20019 35885 ft 456 kts 243°
2026-05-07 22:41 35.88739 -114.26775 35884 ft 456 kts 243°
2026-05-07 22:42 35.85596 -114.33578 35880 ft 456 kts 243°
2026-05-07 22:42 35.82455 -114.40362 35860 ft 455 kts 242°
2026-05-07 22:43 35.79317 -114.47128 35870 ft 454 kts 242°
2026-05-07 22:43 35.76188 -114.53858 35913 ft 454 kts 242°
2026-05-07 22:44 35.73040 -114.60617 35908 ft 455 kts 242°
2026-05-07 22:44 35.69901 -114.67345 35947 ft 454 kts 242°
2026-05-07 22:45 35.66749 -114.74085 35946 ft 455 kts 242°
2026-05-07 22:45 35.63585 -114.80838 35952 ft 455 kts 242°
2026-05-07 22:46 35.60422 -114.87578 35944 ft 455 kts 242°
2026-05-07 22:46 35.57252 -114.94318 35952 ft 455 kts 242°
2026-05-07 22:47 35.54097 -115.01016 35944 ft 455 kts 242°
2026-05-07 22:47 35.50902 -115.07746 35949 ft 456 kts 239°
2026-05-07 22:48 35.46771 -115.13674 35953 ft 458 kts 227°
2026-05-07 22:48 35.42298 -115.19251 35961 ft 458 kts 227°
2026-05-07 22:49 35.37871 -115.24872 35956 ft 458 kts 227°
2026-05-07 22:49 35.33512 -115.30519 35958 ft 459 kts 228°
2026-05-07 22:50 35.29136 -115.36212 35949 ft 459 kts 228°
2026-05-07 22:50 35.24759 -115.41893 35949 ft 459 kts 228°
2026-05-07 22:51 35.20376 -115.47568 35946 ft 458 kts 228°
2026-05-07 22:51 35.15993 -115.53234 35934 ft 458 kts 228°
2026-05-07 22:52 35.11614 -115.58881 35937 ft 457 kts 227°
2026-05-07 22:52 35.07243 -115.64475 35918 ft 457 kts 227°
2026-05-07 22:53 35.02865 -115.70061 35904 ft 457 kts 227°
2026-05-07 22:53 34.98473 -115.75662 35909 ft 456 kts 227°
2026-05-07 22:54 34.94083 -115.81254 35899 ft 457 kts 227°
2026-05-07 22:54 34.89713 -115.86811 35868 ft 447 kts 227°
2026-05-07 22:54 34.87595 -115.89500 35856 ft 433 kts 227°
2026-05-07 22:55 34.85536 -115.92113 35682 ft 422 kts 227°
2026-05-07 22:55 34.83512 -115.94680 35093 ft 420 kts 227°
2026-05-07 22:55 34.81461 -115.97284 34060 ft 432 kts 227°
2026-05-07 22:55 34.79383 -115.99916 33628 ft 426 kts 227°
2026-05-07 22:56 34.77340 -116.02499 33117 ft 420 kts 227°
2026-05-07 22:56 34.75337 -116.05042 32767 ft 412 kts 228°
2026-05-07 22:56 34.73373 -116.07542 32385 ft 405 kts 228°
2026-05-07 22:56 34.71460 -116.09980 32043 ft 401 kts 228°
2026-05-07 22:57 34.69539 -116.12428 31701 ft 399 kts 228°
2026-05-07 22:57 34.67619 -116.14874 31381 ft 403 kts 228°
2026-05-07 22:57 34.65649 -116.17383 31051 ft 416 kts 228°
2026-05-07 22:57 34.63632 -116.19947 30656 ft 420 kts 228°
2026-05-07 22:58 34.61616 -116.22506 30272 ft 418 kts 227°
2026-05-07 22:58 34.59610 -116.25049 29916 ft 416 kts 227°
2026-05-07 22:58 34.57609 -116.27583 29497 ft 414 kts 228°
2026-05-07 22:58 34.55621 -116.30100 29096 ft 410 kts 228°
2026-05-07 22:59 34.53675 -116.32563 28712 ft 407 kts 227°
2026-05-07 22:59 34.51725 -116.35029 28332 ft 404 kts 227°
2026-05-07 22:59 34.49789 -116.37476 27958 ft 401 kts 228°
2026-05-07 22:59 34.47864 -116.39909 27606 ft 397 kts 227°
2026-05-07 23:00 34.45950 -116.42325 27240 ft 395 kts 227°
2026-05-07 23:00 34.44054 -116.44716 26885 ft 392 kts 227°
2026-05-07 23:00 34.42172 -116.47103 26513 ft 390 kts 230°
2026-05-07 23:00 34.40676 -116.49804 26143 ft 383 kts 246°
2026-05-07 23:01 34.39525 -116.52693 25835 ft 380 kts 247°
2026-05-07 23:01 34.38391 -116.55576 25471 ft 379 kts 247°
2026-05-07 23:01 34.37250 -116.58440 25129 ft 389 kts 246°
2026-05-07 23:01 34.36017 -116.61484 24757 ft 416 kts 246°
2026-05-07 23:02 34.34702 -116.64683 24352 ft 427 kts 245°
2026-05-07 23:02 34.33369 -116.67901 23938 ft 427 kts 245°
2026-05-07 23:02 34.32054 -116.71121 23439 ft 426 kts 246°
2026-05-07 23:02 34.30760 -116.74340 22902 ft 423 kts 246°
2026-05-07 23:03 34.29493 -116.77501 22420 ft 421 kts 246°
2026-05-07 23:03 34.28217 -116.80685 21927 ft 417 kts 246°
2026-05-07 23:03 34.26953 -116.83830 21473 ft 413 kts 246°
2026-05-07 23:03 34.25702 -116.86935 21044 ft 409 kts 246°
2026-05-07 23:04 34.24878 -116.88977 20818 ft 404 kts 246°
2026-05-07 23:04 34.23258 -116.92989 20311 ft 398 kts 246°
2026-05-07 23:04 34.22044 -116.95991 19832 ft 397 kts 246°
2026-05-07 23:04 34.20854 -116.98994 19350 ft 395 kts 249°
2026-05-07 23:05 34.20211 -117.01044 19052 ft 392 kts 253°
2026-05-07 23:05 34.19402 -117.04174 18638 ft 388 kts 256°
2026-05-07 23:05 34.18631 -117.07303 18086 ft 388 kts 255°
2026-05-07 23:05 34.17835 -117.10404 17609 ft 384 kts 254°
2026-05-07 23:06 34.17021 -117.13460 17189 ft 379 kts 253°
2026-05-07 23:06 34.16201 -117.16469 16818 ft 376 kts 253°
2026-05-07 23:06 34.15373 -117.19472 16374 ft 376 kts 253°
2026-05-07 23:06 34.14555 -117.22432 15966 ft 375 kts 253°
2026-05-07 23:07 34.13728 -117.25430 15552 ft 375 kts 253°
2026-05-07 23:07 34.12905 -117.28415 15141 ft 374 kts 254°
2026-05-07 23:07 34.12085 -117.31389 14742 ft 371 kts 252°
2026-05-07 23:07 34.11275 -117.34323 14347 ft 367 kts 252°
2026-05-07 23:08 34.10470 -117.37238 13945 ft 364 kts 253°
2026-05-07 23:08 34.09721 -117.40148 13448 ft 362 kts 254°
2026-05-07 23:08 34.09017 -117.43012 12989 ft 359 kts 255°
2026-05-07 23:08 34.08304 -117.45894 12527 ft 357 kts 256°
2026-05-07 23:09 34.07594 -117.48738 12211 ft 350 kts 255°
2026-05-07 23:09 34.06814 -117.51501 11727 ft 343 kts 250°
2026-05-07 23:09 34.05881 -117.54100 11376 ft 332 kts 248°
2026-05-07 23:09 34.04937 -117.56610 11041 ft 324 kts 248°
2026-05-07 23:10 34.04023 -117.59061 10715 ft 318 kts 250°
2026-05-07 23:10 34.03140 -117.61475 10415 ft 320 kts 249°
2026-05-07 23:10 34.02244 -117.63952 10096 ft 323 kts 250°
2026-05-07 23:10 34.01343 -117.66449 9747 ft 326 kts 250°
2026-05-07 23:11 34.00548 -117.68990 9354 ft 321 kts 261°
2026-05-07 23:11 34.00248 -117.71615 9053 ft 313 kts 266°
2026-05-07 23:11 34.00038 -117.74193 8725 ft 303 kts 268°
2026-05-07 23:11 33.99831 -117.76679 8437 ft 294 kts 265°
2026-05-07 23:12 33.99619 -117.79087 8143 ft 283 kts 266°
2026-05-07 23:12 33.99406 -117.81380 7870 ft 274 kts 264°
2026-05-07 23:12 33.99190 -117.83644 7591 ft 263 kts 265°
2026-05-07 23:12 33.98984 -117.85770 7339 ft 254 kts 265°
2026-05-07 23:13 33.98779 -117.87865 7077 ft 249 kts 265°
2026-05-07 23:13 33.98579 -117.89905 6822 ft 241 kts 265°
2026-05-07 23:13 33.98385 -117.91880 6599 ft 232 kts 264°
2026-05-07 23:13 33.98200 -117.93751 6385 ft 218 kts 264°
2026-05-07 23:14 33.98025 -117.95523 6153 ft 208 kts 264°
2026-05-07 23:14 33.97856 -117.97231 5912 ft 200 kts 264°
2026-05-07 23:14 33.97698 -117.98841 5730 ft 186 kts 264°
2026-05-07 23:14 33.97552 -118.00319 5519 ft 174 kts 265°
2026-05-07 23:15 33.97413 -118.01719 5332 ft 163 kts 264°
2026-05-07 23:15 33.97281 -118.03053 5184 ft 160 kts 264°
2026-05-07 23:15 33.97150 -118.04388 5027 ft 162 kts 265°
2026-05-07 23:15 33.97016 -118.05743 4870 ft 162 kts 264°
2026-05-07 23:16 33.96882 -118.07084 4694 ft 159 kts 265°
2026-05-07 23:16 33.96752 -118.08399 4524 ft 156 kts 264°
2026-05-07 23:16 33.96624 -118.09685 4360 ft 152 kts 264°
2026-05-07 23:16 33.96523 -118.10915 4362 ft 144 kts 265°
2026-05-07 23:17 33.96417 -118.12128 4213 ft 150 kts 264°
2026-05-07 23:17 33.96298 -118.13362 4062 ft 147 kts 264°
2026-05-07 23:17 33.96178 -118.14560 3861 ft 142 kts 264°
2026-05-07 23:17 33.96059 -118.15723 3677 ft 137 kts 265°
2026-05-07 23:18 33.95941 -118.16860 3515 ft 136 kts 265°
2026-05-07 23:18 33.95824 -118.17994 3353 ft 137 kts 264°
2026-05-07 23:18 33.95708 -118.19112 3178 ft 133 kts 264°
2026-05-07 23:18 33.95593 -118.20227 3022 ft 139 kts 264°
2026-05-07 23:19 33.95472 -118.21394 2821 ft 141 kts 263°
2026-05-07 23:19 33.95350 -118.22562 2657 ft 138 kts 264°
2026-05-07 23:19 33.95231 -118.23724 2467 ft 141 kts 263°
2026-05-07 23:19 33.95111 -118.24883 2277 ft 137 kts 263°
2026-05-07 23:20 33.94996 -118.26003 2097 ft 135 kts 262°
2026-05-07 23:20 33.94883 -118.27101 1932 ft 133 kts 260°
2026-05-07 23:20 33.94769 -118.28200 1759 ft 132 kts 260°
2026-05-07 23:20 33.94658 -118.29282 1585 ft 129 kts 260°
2026-05-07 23:21 33.94546 -118.30365 1413 ft 131 kts 261°
2026-05-07 23:21 33.94431 -118.31485 1248 ft 137 kts 263°
2026-05-07 23:21 33.94318 -118.32602 1056 ft 132 kts 260°
2026-05-07 23:21 33.94202 -118.33704 882 ft 135 kts 262°
2026-05-07 23:22 33.94085 -118.34818 738 ft 130 kts 262°
2026-05-07 23:22 33.93966 -118.35875 535 ft 124 kts 262°
2026-05-07 23:22 33.93861 -118.36880 398 ft 121 kts 264°
2026-05-07 23:22 33.93772 -118.37870 241 ft 114 kts 263°
2026-05-07 23:23 33.93677 -118.38800 124 ft 103 kts 264°
2026-05-07 23:23 33.93614 -118.39483 125 ft 54 kts 263°
2026-05-07 23:23 33.93620 -118.39844 121 ft 25 kts 293°
2026-05-07 23:23 33.93666 -118.40010 121 ft 19 kts 274°
2026-05-07 23:24 33.93654 -118.40167 121 ft 19 kts 264°
2026-05-07 23:24 33.93646 -118.40236 124 ft 7 kts 262°
2026-05-07 23:24 33.93645 -118.40249 125 ft 0 kts 263°
2026-05-07 23:26 33.93644 -118.40262 125 ft 6 kts 263°
2026-05-07 23:26 33.93633 -118.40368 125 ft 19 kts 263°
2026-05-07 23:26 33.93615 -118.40552 123 ft 23 kts 262°
2026-05-07 23:26 33.93596 -118.40732 123 ft 19 kts 263°
2026-05-07 23:27 33.93605 -118.40831 122 ft 0 kts 291°
2026-05-07 23:28 33.93620 -118.40868 122 ft 12 kts 307°
2026-05-07 23:29 33.93702 -118.40900 124 ft 12 kts 352°
2026-05-07 23:29 33.93781 -118.40883 123 ft 12 kts 52°
2026-05-07 23:29 33.93795 -118.40785 125 ft 12 kts 80°
2026-05-07 23:29 33.93810 -118.40678 125 ft 16 kts 82°
2026-05-07 23:30 33.93826 -118.40516 120 ft 21 kts 84°
2026-05-07 23:30 33.93841 -118.40356 123 ft 12 kts 83°
2026-05-07 23:30 33.93865 -118.40289 123 ft 7 kts 13°
2026-05-07 23:30 33.93937 -118.40297 122 ft 13 kts 352°
2026-05-07 23:31 33.94024 -118.40309 122 ft 12 kts 352°
2026-05-07 23:31 33.94092 -118.40320 122 ft 8 kts 352°
2026-05-07 23:31 33.94119 -118.40303 121 ft 2 kts 72°
2026-05-07 23:31 33.94126 -118.40274 121 ft 5 kts 73°
2026-05-07 23:32 33.94129 -118.40262 123 ft 0 kts 72°